Location: Pasarilla del Rebollar
(40.6790°N, 5.0062°W)
Time: 11:20:57
(UTC+00:00)

USA 267 - Pass Details

Date: 22 April 2026
Orbit: 1101 x 1107 km, 123.0° (Epoch: 10 January)

Event Time Altitude Azimuth Distance (km) Brightness Sun altitude
Rises 03:09:41 0° 45° (NE) 3,933 7.6 -24.0°
Reaches altitude 10° 03:12:11 10° 42° (NE) 2,973 6.6 -23.7°
Maximum altitude 03:18:38 62° 324° (NW) 1,233 3.5 -22.7°
Enters shadow 03:21:22 36° 259° (W) 1,683 3.8 -22.4°
